User: anonymous   Login
Location: Unspecified
(0.0000°N, 0.0000°E)
Time: 01:29:10
(UTC+01:00)
Language:

Cosmos 1898 Rocket - Orbit

View from above orbital plane
View from above orbital plane
View from above satellite
View from above satellite

Ground track
Ground track

The orbit data is extracted from the following two-line orbital elements,

1 18586U 87098B   17345.42774240  .00000090  00000-0  39559-4 0  9994
2 18586  74.0066 328.9586 0021485 340.0624  19.9687 14.36806399572815
Epoch (UTC): 11 December 2017 10:15:56
Eccentricity: 0.0021485
inclination: 74.0066°
perigee height: 754 km
apogee height: 784 km
right ascension of ascending node: 328.9586°
argument of perigee: 340.0624°
revolutions per day: 14.36806399
mean anomaly at epoch: 19.9687°
orbit number at epoch: 57281

The dashed part of the orbit path shows where the satellite is in the earth's shadow,  

DLR